Location: Earls Croome
(52.0667°N, 2.2000°W)
Time: 10:04:48
(UTC+00:00)

CZ-2C R/B - Pass Details

Date: 17 November 2019
Orbit: 667 x 785 km, 98.1° (Epoch: 14 December)

Event Time Altitude Azimuth Distance (km) Brightness Sun altitude
Rises 06:21:20 0° 5° (N) 3,202 5.6 -10.7°
Reaches altitude 10° 06:24:15 10° 348° (NNW) 2,251 4.6 -10.3°
Maximum altitude 06:27:36 19° 305° (NW) 1,703 3.7 -9.8°
Drops below altitude 10° 06:30:53 10° 262° (W) 2,189 4.3 -9.3°
Enters shadow 06:32:24 - 251° (WSW) 2,648 4.8 -9.1°
